Location: Unspecified
(0.0000°N, 0.0000°E)
Time: 06:41:07
(UTC+02:00)

GPS 2-15 Rocket1 - Visible Passes

Search period start: 21 August 2017 00:00
Search period end: 31 August 2017 00:00
Orbit: 624 x 676 km, 19.8° (Epoch: 20 August)

Date Brightness Start Highest point End Pass type
(mag) Time Alt. Az. Time Alt. Az. Time Alt. Az.
21 Aug 5.5 20:35:20 10° S 20:35:58 10° S 20:36:36 10° SSE visible
22 Aug 5.0 20:59:42 10° SSW 21:02:40 16° SSE 21:04:02 14° SE visible
23 Aug 4.5 21:25:08 10° SW 21:29:00 25° SSE 21:29:00 25° SSE visible
24 Aug 4.4 21:50:56 10° SW 21:54:00 33° SSW 21:54:00 33° SSW visible
25 Aug 4.4 20:33:25 10° SW 20:37:39 28° SSE 20:41:23 12° ESE visible
25 Aug 5.2 22:17:04 10° WSW 22:19:03 24° WSW 22:19:03 24° WSW visible
26 Aug 5.6 07:04:07 10° NNW 07:06:16 13° NNE 07:08:26 10° NE visible
26 Aug 3.5 20:59:16 10° SW 21:04:05 50° SSE 21:06:27 27° E visible
26 Aug 6.1 22:43:36 10° W 22:44:08 13° W 22:44:08 13° W visible
27 Aug 5.2 07:29:17 10° NNW 07:32:50 21° NNE 07:36:23 10° ENE visible
27 Aug 3.1 21:25:28 10° WSW 21:30:26 86° NNW 21:31:32 55° ENE visible
28 Aug 5.5 06:13:18 12° N 06:14:49 14° NNE 06:17:15 10° NE visible
28 Aug 4.0 21:52:03 10° W 21:56:38 45° NNW 21:56:38 45° NNW visible
29 Aug 5.0 06:38:19 13° NNW 06:41:21 23° NNE 06:45:04 10° ENE visible
29 Aug 3.3 20:33:53 10° WSW 20:38:51 79° NNW 20:43:48 10° ENE visible
29 Aug 5.4 22:19:07 10° WNW 22:21:42 22° NW 22:21:42 22° NW visible
30 Aug 6.1 05:25:43 11° NE 05:25:43 11° NE 05:26:04 10° NE visible
30 Aug 4.1 07:03:24 10° NW 07:07:47 42° NNE 07:12:10 10° E visible
30 Aug 4.2 21:00:32 10° W 21:05:12 41° NNW 21:09:04 14° NE visible
